{"data":{"norad_id":55756,"intl_designator":"2023-028R","name":"STARLINK-5614","alt_names":[],"object_type":"PAYLOAD","status":"ACTIVE","operator":null,"country":"US","launch_date":"2023-03-03","launch_site_code":"AFWTR","launch_vehicle":null,"mission":null,"orbit_class":"UNKNOWN","rcs_meters":null,"size_class":null,"mass_kg":null,"dimensions":null,"purposes":["comms"],"wikipedia_slug":null,"has_3d_model":false,"image_url":null,"decayed_at":null,"tle_current":{"epoch":"2026-09-20T22:00:03.000096Z","epoch_age_seconds":67116,"freshness":"FRESH","line1":"1 55756U 23028R   26263.91670139  .00079669  00000+0  56723-2 0  9999","line2":"2 55756  70.0004 111.9978 0004878 239.3669 311.4443 15.04156447  5767","mean_motion":15.04156447,"eccentricity":0.0004878,"inclination_deg":70.0004,"raan_deg":111.9978,"arg_perigee_deg":239.3669,"mean_anomaly_deg":311.4443,"bstar":0.0056723,"rev_number":576,"period_min":95.734722466672,"perigee_km":550.71472684464,"apogee_km":557.47781362308,"semimajor_km":6932.2332702339,"source":"CELESTRAK","updated_at":"2026-09-21T09:00:33.314216Z"}}}